Kodiak, AK

3:15 PM AKST on November 21, 2017 (GMT -0900)
Kodiak

Weather History for PADQ - July, 2013

Change the Weather History Date:

Monday, July 1, 2013

  Actual Average Record
Temperature  
Mean Temperature 51 °F 52 °F  
Max Temperature 55 °F 58 °F 78 °F (1989)
Min Temperature 47 °F 48 °F 38 °F (2009)
Degree Days  
Heating Degree Days 14 13  
Month to date heating degree days 14 13  
Since 1 June heating degree days 345 474  
Since 1 July heating degree days 14 13  
Cooling Degree Days 0 0  
Month to date cooling degree days 0 0  
Year to date cooling degree days 3 0  
Since 1 June cooling degree days 3 0  
Growing Degree Days 2 (Base 50)    
Moisture  
Dew Point 47 °F    
Average Humidity 0    
Maximum Humidity 0    
Minimum Humidity 0    
Precipitation  
Precipitation 0.17 in 0.16 in 1.48 in (1990)
Month to date precipitation 0.17 0.16  
Year to date precipitation 29.72 37.46  
Snow  
Snow 0.00 in 0.00 in - ()
Month to date snowfall 0.0 0.0  
Since 1 June snowfall 0.0 0.0  
Since 1 July snowfall 0.0 0.0  
Snow Depth 0.00 in    
Sea Level Pressure  
Sea Level Pressure 29.59 in    
Wind  
Wind Speed 9 mph (East)    
Max Wind Speed 18 mph    
Max Gust Speed 24 mph    
Visibility 8 miles    
Events Rain    
T = Trace of Precipitation, MM = Missing Value Source: NWS Daily Summary

Daily Weather History Graph

Daily Weather History Graph

Search for Another Location

Airport or City:

Trip Planner

Search our weather history database for the weather conditions in past years. The results will help you decide how hot, cold, wet, or windy it might be!

Date:

Astronomy

Jul. 01, 2013 Rise Set
Actual Time 5:14 AM AKDT 11:12 PM AKDT
Civil Twilight 4:03 AM AKDT 12:23 AM AKDT
Nautical Twilight 2:46 AM AKDT 1:41 AM AKDT
Astronomical Twilight Sun does not rise Sun does not rise
Moon 1:45 AM AKDT (7/1) 4:51 PM AKDT (7/1)
Length of Visible Light 20h 20m
Length of Day
17h 57m
Waning Crescent, 34% of the Moon is Illuminated
Jul 1
Waning Crescent
Jul 7
New
Jul 15
First Quarter
Jul 22
Full
Jul 29
Last Quarter

Hourly Weather History & Observations

Time (AKDT) Temp. Dew Point Humidity Pressure Visibility Wind Dir Wind Speed Gust Speed Precip Events Conditions
12:53 AM 50.0 °F 46.9 °F 89% 29.77 in 5.0 mi ESE 11.5 mph - 0.05 in Rain Light Rain
1:53 AM 50.0 °F 46.9 °F 89% 29.75 in 5.0 mi SE 15.0 mph - 0.05 in Rain Light Rain
2:00 AM 50.0 °F 46.4 °F 87% 29.74 in 8.0 mi SE 12.7 mph - 0.00 in Rain Light Rain
2:53 AM 50.0 °F 46.9 °F 89% 29.72 in 6.0 mi SE 10.4 mph - 0.06 in Rain Rain
3:53 AM 51.1 °F 46.9 °F 86% 29.68 in 10.0 mi SSE 16.1 mph 23.0 mph 0.01 in Rain Light Rain
4:53 AM 51.1 °F 46.0 °F 83% 29.65 in 9.0 mi SE 13.8 mph 23.0 mph 0.01 in   Overcast
5:53 AM 50.0 °F 46.9 °F 89% 29.64 in 6.0 mi SE 10.4 mph 20.7 mph 0.00 in Rain Light Rain
6:53 AM 50.0 °F 46.9 °F 89% 29.61 in 5.0 mi SE 12.7 mph - 0.00 in Rain Light Rain
7:53 AM 51.1 °F 48.0 °F 89% 29.60 in 9.0 mi SE 11.5 mph - N/A   Overcast
8:53 AM 50.0 °F 48.0 °F 93% 29.58 in 10.0 mi ESE 10.4 mph - 0.00 in Rain Light Rain
9:53 AM 50.0 °F 48.9 °F 96% 29.57 in 5.0 mi East 10.4 mph - 0.00 in   Overcast
10:53 AM 51.1 °F 48.9 °F 92% 29.56 in 7.0 mi East 10.4 mph - 0.00 in Rain Light Rain
11:35 AM 51.8 °F 48.2 °F 88% 29.54 in 10.0 mi East 10.4 mph - 0.01 in   Mostly Cloudy
11:53 AM 52.0 °F 50.0 °F 93% 29.55 in 4.0 mi East 11.5 mph - 0.01 in   Mostly Cloudy
12:04 PM 51.8 °F 50.0 °F 94% 29.55 in 3.0 mi East 10.4 mph - N/A   Mostly Cloudy
12:53 PM 51.1 °F 48.9 °F 92% 29.55 in 4.0 mi ENE 4.6 mph - N/A   Overcast
1:10 PM 53.6 °F 50.0 °F 88% 29.53 in 6.0 mi East 5.8 mph - N/A   Overcast
1:53 PM 51.1 °F 48.0 °F 89% 29.53 in 6.0 mi NNE 6.9 mph - N/A   Overcast
2:50 PM 53.6 °F 48.2 °F 82% 29.53 in 10.0 mi NE 5.8 mph - N/A   Mostly Cloudy
2:53 PM 54.0 °F 50.0 °F 86% 29.53 in 10.0 mi NE 5.8 mph - N/A   Mostly Cloudy
3:00 PM 53.6 °F 48.2 °F 82% 29.53 in 10.0 mi NE 5.8 mph - N/A   Mostly Cloudy
3:53 PM 55.0 °F 48.9 °F 80% 29.52 in 10.0 mi NE 5.8 mph - 0.00 in Rain Light Rain
4:53 PM 53.1 °F 50.0 °F 89% 29.54 in 6.0 mi NE 3.5 mph - 0.03 in Rain Light Rain
5:14 PM 53.6 °F 48.2 °F 82% 29.54 in 10.0 mi NW 11.5 mph - 0.00 in   Overcast
5:53 PM 54.0 °F 48.0 °F 80% 29.54 in 10.0 mi WNW 8.1 mph - 0.00 in   Overcast
6:53 PM 54.0 °F 46.0 °F 75% 29.55 in 10.0 mi NW 8.1 mph - N/A   Overcast
7:53 PM 55.0 °F 46.0 °F 72% 29.56 in 10.0 mi West 13.8 mph 18.4 mph N/A   Overcast
8:00 PM 55.4 °F 44.6 °F 67% 29.56 in 10.0 mi West 8.1 mph 18.4 mph N/A   Overcast
8:53 PM 55.0 °F 44.1 °F 67% 29.58 in 10.0 mi West 10.4 mph 20.7 mph N/A   Overcast
9:53 PM 54.0 °F 43.0 °F 66% 29.58 in 10.0 mi NW 6.9 mph - N/A   Overcast
10:53 PM 54.0 °F 39.9 °F 59% 29.60 in 10.0 mi NW 3.5 mph - N/A   Overcast
11:53 PM 48.9 °F 43.0 °F 80% 29.62 in 10.0 mi Calm Calm - N/A   Overcast